Погода в Ишаках

Россия / Чувашская Республика     55°56′03″N   47°03′57″E
темп.,
°C
ветер,
м/с
пор.,
м/с
влажн.,
%
обл.,
%
осадки,
мм/ч
давл.,
гПа
погр.,
м
12 мая, ср
ср1200:00+14всв238973 0.4 102741
03:00+13всв33879 0.4 102734
06:00+15всв35855 0.0 1027134
09:00+20в47595 0.0 1027501
12:00+23вюв45485 0.0 10261178
15:00+24вюв564320 0.0 10252634
18:00+21вюв3663100 0.0 1024152
21:00+18юв356742 0.0 102597
13 мая, чт
чт1300:00+15юв336776 0.0 102527
03:00+14вюв33727 0.0 102527
06:00+15вюв387611 0.0 1025204
09:00+19вюв596297 0.0 1025549
12:00+22вюв7105385 0.0 1023998
15:00+21юв71062100 0.0 10221083
18:00+18вюв5137877 0.1 1021510
21:00+16юв5148191 0.1 1020340
14 мая, пт
пт1400:00+14ююв41485100 0.2 1020318
03:00+13ю36900 0.3 1020102
06:00+15ююз2485100 0.0 1021148
09:00+20ююз3472100 0.0 1021501
12:00+23ю3458100 0.0 10211177
15:00+24ююв3558100 0.0 10201350
18:00+23ююв366984 0.5 1019186
21:00+17ю4777100 0.5 1018100
15 мая, сб
сб1500:00+16ю41180100 0.0 1018172
03:00+15ю3782100 0.0 1018110
06:00+17ююв387675 0.0 1018177
09:00+22ю5956100 0.0 1018385
12:00+26ю61144100 0.0 10181078
15:00+26ююз6114346 0.0 10171263
18:00+23ю411615 0.0 1016312
21:00+17ю413685 0.0 1016203
16 мая, вс
вс1600:00+16ю4156795 0.0 1016236
03:00+15ю4146553 0.0 1015236
06:00+17ю41468100 0.0 1016294
09:00+23ююз6125366 0.0 1015600
12:00+25ююз61149100 0.0 10151057
15:00+26ююз610490 0.0 10141412
18:00+23ююз51162100 0.0 1014361
21:00+18ююз31073100 0.0 1014166